Weather Roundup
Issued by NWS

Home | Current Version | Previous Version | Text Only | Print | Product List | Glossary On
Versions: 1 2 3 4 5 6 7 8 9 10 11 12 13 14 15 16 17 18 19 20 21 22 23 24 25 26 27 28 29 30 31 32 33 34 35 36 37 38 39 40 41 42 43 44 45 46 47 48 49 50
215
NZUS93 KARX 302310
HRRWXR

CURRENT HOURLY OBSERVATIONS ACROSS
MUCH OF THE UPPER MISSISSIPPI VALLEY
NATIONAL WEATHER SERVICE LA CROSSE WI
600 PM CDT MON MAY 30 2016


...SOUTHEAST MINNESOTA...


CITY           SKY/WX    TMP DP  RH WIND       PRES   REMARKS
ROCHESTER      CLOUDY    78  52  40 SE12      29.93F
ROCHESTER/MAYO FAIR      81  47  30 SE9G16    29.93F
WINONA         SUNNY     81  46  30 CALM      29.94F
AUSTIN         SUNNY     79  55  44 S5        29.91F
ALBERT LEA     CLOUDY    82  55  39 SE10      29.90F
DODGE CENTER   MOSUNNY   81  46  30 SE13      29.92F
PRESTON        SUNNY     79  49  35 SE8       29.95F
OWATONNA       PTSUNNY   81  48  32 S10G16    29.90F
FARIBAULT      MOSUNNY   82  52  34 SE9       29.91F
$$

...ELSEWHERE IN MINNESOTA...


CITY           SKY/WX    TMP DP  RH WIND       PRES   REMARKS
MINNEAPOLIS    PTSUNNY   83  48  29 S9        29.90F
INTNL FALLS    SUNNY     75  46  35 NE9       29.93F
DULUTH         PTSUNNY   73  49  42 E5        29.93S
RED WING       SUNNY     82  50  32 SE8       29.90F
REDWOOD FALLS  MOSUNNY   84  55  36 SE16      29.83F
MANKATO        CLOUDY    82  52  34 S14       29.88F
WORTHINGTON    MOSUNNY   82  56  40 S12       29.85F
FAIRMONT       CLOUDY    81  57  44 SE13      29.86F
$$

...SOUTHWEST WISCONSIN...


CITY           SKY/WX    TMP DP  RH WIND       PRES   REMARKS
LA CROSSE      SUNNY     82  47  29 SW7       29.94F
PRAIRIE DU CHI SUNNY     82  43  25 CALM      29.95F
BOSCOBEL       SUNNY     83  47  28 VRB5      29.95F
LONE ROCK      SUNNY     84  49  29 CALM      29.96F
PLATTEVILLE    SUNNY     81  46  28 CALM      29.98F
FORT MC COY    SUNNY     81  48  30 W5        29.96F
CAMP DOUGLAS   SUNNY     81  52  36 E1        29.96F
MAUSTON-NEW LI CLEAR     81  51  34 CALM      29.96F
VIROQUA        FAIR      81  45  28 S6        29.97F
WIS DELLS      SUNNY     81  42  24 W3        29.97S
$$

...ELSEWHERE IN WISCONSIN...


CITY           SKY/WX    TMP DP  RH WIND       PRES   REMARKS
MILWAUKEE      MOSUNNY   72  58  61 SE8       29.98S
MADISON        MOSUNNY   82  49  31 VRB3      29.97S
GREEN BAY      SUNNY     81  50  33 NW5       29.96F
EAU CLAIRE     MOSUNNY   81  51  35 SW8       29.94F
BLACK RVR FLS  FAIR      82  44  26 W5        29.95F
MEDFORD        SUNNY     76  51  41 CALM      29.97F
WAUSAU         SUNNY     79  49  34 VRB5      29.96F
WIS RAPIDS     SUNNY     82  45  27 N7        29.98F
MARSHFIELD     SUNNY     79  50  36 NW6       29.97F
RICE LAKE      SUNNY     80  48  32 S6        29.96S
$$

...NORTHEAST IOWA...


CITY           SKY/WX    TMP DP  RH WIND       PRES   REMARKS
WATERLOO       PTSUNNY   80  62  54 SE7       29.89F
DUBUQUE        SUNNY     82  54  37 NE7       29.97F
DECORAH        CLOUDY    81  52  36 S8        29.95F
MASON CITY     MOSUNNY   80  60  50 SE13      29.90F
CHARLES CITY   MOSUNNY   82  59  44 SE9       29.92F
OELWEIN        SUNNY     81  57  44 SE10      29.94F
$$

...ELSEWHERE IN IOWA...


CITY           SKY/WX    TMP DP  RH WIND       PRES   REMARKS
DES MOINES     PTSUNNY   86  58  38 S15       29.89F
IOWA CITY      MOSUNNY   84  64  50 S12       29.94F
FORT DODGE     CLOUDY    84  57  39 S14       29.87F
MARSHALLTOWN   CLOUDY    82  59  45 S8        29.89F
CEDAR RAPIDS   SUNNY     84  64  50 SE8       29.92F
$$

...NORTHERN ILLINOIS...


CITY           SKY/WX    TMP DP  RH WIND       PRES   REMARKS
CHICAGO-OHARE  MOSUNNY   83  58  42 E9        29.95S
CHICAGO-MIDWAY MOSUNNY   82  56  40 E10       29.95F
MOLINE         SUNNY     87  59  38 SW10      29.93F
ROCKFORD       CLOUDY    85  50  29 N7        29.98F
PEORIA         MOSUNNY   85  57  38 SW7       29.96F
$$

NOTE: "FAIR" INDICATES FEW OR NO CLOUDS BELOW 12,000 FEET WITH NO
SIGNIFICANT WEATHER AND/OR OBSTRUCTIONS TO VISIBILITY. WIND
SPEEDS ARE IN MILES-PER-HOUR.




USA.gov is the U.S. government's official web portal to all federal, state and local government web resources and services.